Home   Weather   Coimbra   Past weeks

Flag for Portugal Past Weather in Coimbra, Portugal — Yesterday and Last 2 Weeks

Now
55 °F

Fog.


Feels Like: 55 °F
Forecast: 47 / 67 °F
Wind: No wind

Location: Porto / Pedras Rubras

Current Time: Oct 1, 2016 at 4:21:03 AM

Latest Report: Oct 1, 2016 at 4:00 AM


Visibility: 2 mi

Pressure: 29.98 "Hg

Humidity: 100%

Dew Point: 55 °F

Location of CoimbraLocation

Past Weather in Coimbra — Graph

°F

Coimbra Temperature Yesterday

Maximum temperature yesterday: 66 °F (at 10:30 AM)
Minimum temperature yesterday: 52 °F (at 5:30 AM)
Average temperature yesterday: 59 °F

High & Low Weather Summary for the Past Weeks

 TemperatureHumidityPressure
High86 °F (Sep 28, 1:30 PM)100% (Sep 16, 3:00 AM)30.33 "Hg (Sep 16, 3:00 AM)
Low50 °F (Sep 20, 6:30 AM)37% (Sep 18, 12:30 PM)29.98 "Hg (Sep 20, 2:30 AM)
Average63 °F84%30.14 "Hg
* Reported Sep 16 3:00 AM — Oct 1 3:00 AM, Coimbra, Weather by CustomWeather, © 2016

Note: Actual official high and low records may vary slightly from our data, if they occured in-between our weather recording intervals... More about our weather records

Advertising

Coimbra Weather History for the Previous 24 Hours

Scroll right to see more
 ConditionsComfort  
Time TempWeatherWind HumidityBarometerVisibility
3:00 AM
Sat, Oct 1
57 °FPassing clouds.5 mph100%29.98 "Hg5 mi
2:30 AM57 °FPassing clouds.3 mph100%29.98 "HgN/A
2:00 AM57 °FPassing clouds.3 mph100%29.98 "Hg6 mi
1:30 AM59 °FPassing clouds.3 mph100%29.98 "HgN/A
1:00 AM59 °FPassing clouds.2 mph100%29.98 "HgN/A
12:30 AM59 °FPassing clouds.2 mph100%30.01 "HgN/A
12:00 AM59 °FPassing clouds.5 mph100%30.01 "HgN/A
11:30 PM
Fri, Sep 30
59 °FPassing clouds.3 mph94%30.01 "HgN/A
11:00 PM59 °FPassing clouds.6 mph94%30.01 "HgN/A
10:30 PM61 °FPassing clouds.9 mph83%30.01 "HgN/A
10:00 PM61 °FPassing clouds.9 mph94%30.01 "HgN/A
9:30 PM59 °FPassing clouds.3 mph100%30.01 "HgN/A
9:00 PM59 °FPassing clouds.3 mph100%30.01 "HgN/A
8:30 PM59 °FPassing clouds.5 mph100%30.01 "Hg5 mi
8:00 PM59 °FPassing clouds.2 mph100%30.01 "Hg5 mi
7:30 PM59 °FFog.No wind100%29.98 "Hg3 mi
7:00 PM61 °FFog.6 mph100%29.98 "Hg2 mi
6:30 PM59 °FFog.7 mph100%30.01 "Hg2 mi
6:00 PM59 °FFog.5 mph100%30.01 "Hg3 mi
5:30 PM61 °FPartly sunny.5 mph100%29.98 "Hg5 mi
5:00 PM61 °FPartly sunny.3 mph100%29.98 "Hg1 mi
4:30 PM61 °FPartly sunny.1 mph100%29.98 "Hg5 mi
4:00 PM61 °FLow clouds.3 mph100%30.01 "Hg4 mi
3:30 PM61 °FFog.5 mph100%30.01 "Hg3 mi
3:00 PM61 °FPartly sunny.5 mph100%30.01 "Hg4 mi
2:30 PM63 °FPartly sunny.8 mph88%30.01 "Hg1 mi
2:00 PM64 °FPassing clouds.6 mph88%30.01 "Hg6 mi
1:30 PM64 °FPassing clouds.6 mph88%30.01 "HgN/A
1:00 PM63 °FPartly sunny.5 mph88%30.04 "Hg5 mi
12:30 PM64 °FPartly sunny.5 mph88%30.04 "Hg5 mi
12:00 PM61 °FPartly sunny.6 mph94%30.04 "Hg4 mi
11:30 AM64 °FPassing clouds.6 mph83%30.04 "Hg6 mi
11:00 AM66 °FPassing clouds.5 mph73%30.04 "HgN/A
10:30 AM66 °FSunny.2 mph73%30.04 "Hg10 mi
10:00 AM64 °FSunny.2 mph78%30.04 "Hg10 mi
9:30 AM63 °FSunny.No wind88%30.04 "Hg10 mi
9:00 AM59 °FClear.2 mph100%30.04 "Hg5 mi
8:30 AM55 °FFog.2 mph100%30.04 "Hg3 mi
8:00 AM54 °FScattered clouds.3 mph100%30.04 "Hg1 mi
7:30 AM57 °FPassing clouds.5 mph88%30.04 "HgN/A
7:00 AM55 °FPassing clouds.6 mph94%30.04 "HgN/A
6:30 AM52 °FClear.No wind100%30.04 "Hg10 mi
6:00 AM54 °FClear.No wind100%30.04 "Hg10 mi
5:30 AM52 °FClear.No wind100%30.04 "Hg10 mi
5:00 AM55 °FClear.No wind94%30.04 "Hg10 mi
4:30 AM54 °FClear.No wind100%30.04 "Hg10 mi
4:00 AM54 °FPassing clouds.3 mph100%30.04 "HgN/A
Weather by CustomWeather, © 2016

See weather overviewHow to use our weather pages